Simultaneous Nadir Overpasses (SNOs) Predictions

Prediction of SNOs between AQUA and NPP Satellite Orbit:

Table of predicted SNOs for the next 14.0 days since TLE Epoch: 3/15/2013
Index Date (AQUA) Time (AQUA) Lat,Lon (AQUA) SZA (AQUA ) Date (NPP) Time (NPP) Lat,Lon (NPP) SZA (NPP ) Distance(km) Time Diff (sec)
1 03/15/2013 22:38:30 -76.35, -99.36 81.04 03/15/2013 22:37:21 -76.34, -99.41 80.97 1.35 69
2 03/15/2013 23:27:38 77.19, 71.29 97.94 03/15/2013 23:27:46 77.18, 71.22 97.95 1.98 8
3 03/18/2013 14:54:54 -76.71, 17.73 82.54 03/18/2013 14:54:11 -76.70, 17.71 82.50 0.74 43
4 03/18/2013 15:44:03 77.49,-171.65 96.50 03/18/2013 15:44:37 77.48,-171.68 96.48 0.86 34
5 03/21/2013 07:11:14 -77.22, 135.50 84.23 03/21/2013 07:10:57 -77.22, 135.61 84.25 2.83 17
6 03/21/2013 08:00:31 77.62, -55.23 95.26 03/21/2013 08:01:32 77.61, -55.34 95.24 2.83 61
7 03/23/2013 22:38:29 76.60, 81.50 95.45 03/23/2013 22:37:22 76.61, 81.56 95.49 1.69 67
8 03/23/2013 23:27:44 -77.19,-108.74 85.27 03/23/2013 23:27:55 -77.18,-108.84 85.26 2.73 11
9 03/26/2013 14:54:55 76.78,-162.01 94.16 03/26/2013 14:54:16 76.77,-162.03 94.20 0.79 39




NCC Satellite Simultaneous Nadir Overpasses (SNOs) Prediction Service
